When you browse on this site, cookies collect data to enhance your experience and personalize the content and advertising you see.
Visit our Privacy Policy to learn more. By continuing to use the site, you agree to this use of cookies and data.
EN

Hourly Weather Birmingham

Today, 13 July, Monday

Time Temperature Precipitation Wind Pressure Humidity
00:00 +13°C° 0 mm 2 mps 756 mmHg 87%
01:00 +13°C° 0 mm 2 mps 756 mmHg 85%
02:00 +12°C° 0 mm 2 mps 756 mmHg 83%
03:00 +12°C° 0 mm 2 mps 755 mmHg 80%
04:00 +12°C° 0 mm 2 mps 755 mmHg 79%
05:00 +13°C° 0 mm 2 mps 755 mmHg 77%
06:00 +12°C° 0 mm 3 mps 754 mmHg 75%
07:00 +13°C° 0 mm 3 mps 754 mmHg 74%
08:00 +14°C° 0 mm 3 mps 754 mmHg 74%
09:00 +14°C° 0 mm 3 mps 754 mmHg 73%
10:00 +17°C° 0 mm 4 mps 754 mmHg 73%
11:00 +18°C° 0 mm 4 mps 754 mmHg 72%
12:00 +20°C° 0 mm 5 mps 753 mmHg 71%
13:00 +19°C° 0.1 mm 5 mps 753 mmHg 74%
14:00 +19°C° 0.1 mm 5 mps 752 mmHg 77%
15:00 +17°C° 0.1 mm 6 mps 752 mmHg 80%
16:00 +17°C° 0.1 mm 5 mps 752 mmHg 83%
17:00 +17°C° 0.1 mm 4 mps 751 mmHg 86%
18:00 +15°C° 0.1 mm 4 mps 751 mmHg 89%
19:00 +16°C° 0 mm 3 mps 751 mmHg 91%
20:00 +14°C° 0 mm 3 mps 751 mmHg 93%
21:00 +14°C° 0 mm 3 mps 751 mmHg 95%
22:00 +15°C° 0 mm 2 mps 750 mmHg 95%
23:00 +14°C° 0 mm 2 mps 750 mmHg 94%

Tomorrow, 14 July, Tuesday

Time Temperature Precipitation Wind Pressure Humidity
00:00 +14°C° 0 mm 2 mps 750 mmHg 94%
01:00 +14°C° 0 mm 2 mps 750 mmHg 94%
02:00 +12°C° 0 mm 3 mps 750 mmHg 94%
03:00 +12°C° 0 mm 3 mps 749 mmHg 94%
04:00 +12°C° 0 mm 3 mps 750 mmHg 90%
05:00 +12°C° 0 mm 3 mps 750 mmHg 87%
06:00 +12°C° 0 mm 3 mps 750 mmHg 83%
07:00 +13°C° 0 mm 4 mps 750 mmHg 79%
08:00 +13°C° 0 mm 4 mps 750 mmHg 75%
09:00 +14°C° 0 mm 4 mps 750 mmHg 71%
10:00 +15°C° 0 mm 4 mps 750 mmHg 69%
11:00 +15°C° 0 mm 5 mps 750 mmHg 66%
12:00 +16°C° 0 mm 5 mps 750 mmHg 64%
13:00 +16°C° 0.1 mm 5 mps 750 mmHg 64%
14:00 +16°C° 0.1 mm 5 mps 749 mmHg 63%
15:00 +17°C° 0.1 mm 5 mps 749 mmHg 63%
16:00 +17°C° 0.1 mm 4 mps 749 mmHg 66%
17:00 +17°C° 0.1 mm 4 mps 749 mmHg 68%
18:00 +17°C° 0.1 mm 4 mps 749 mmHg 71%
19:00 +14°C° 0 mm 3 mps 749 mmHg 77%
20:00 +13°C° 0 mm 3 mps 749 mmHg 82%
21:00 +11°C° 0 mm 3 mps 749 mmHg 88%
22:00 +12°C° 0 mm 2 mps 749 mmHg 89%
23:00 +12°C° 0 mm 2 mps 749 mmHg 90%

Day after tomorrow, 15 July, Wednesday

Time Temperature Precipitation Wind Pressure Humidity
00:00 +10°C° 0 mm 2 mps 749 mmHg 92%
01:00 +12°C° 0 mm 2 mps 749 mmHg 91%
02:00 +12°C° 0 mm 2 mps 749 mmHg 90%
03:00 +12°C° 0 mm 2 mps 749 mmHg 89%
04:00 +12°C° 0 mm 2 mps 749 mmHg 89%
05:00 +13°C° 0 mm 2 mps 749 mmHg 88%
06:00 +13°C° 0 mm 2 mps 749 mmHg 88%
07:00 +14°C° 0 mm 2 mps 749 mmHg 86%
08:00 +14°C° 0 mm 2 mps 749 mmHg 85%
09:00 +15°C° 0 mm 2 mps 750 mmHg 84%
10:00 +14°C° 0 mm 3 mps 750 mmHg 82%
11:00 +16°C° 0 mm 3 mps 750 mmHg 80%
12:00 +16°C° 0 mm 3 mps 750 mmHg 78%
13:00 +16°C° 0 mm 3 mps 750 mmHg 78%
14:00 +17°C° 0 mm 4 mps 750 mmHg 78%
15:00 +17°C° 0 mm 4 mps 750 mmHg 79%
16:00 +15°C° 0 mm 4 mps 750 mmHg 79%
17:00 +15°C° 0 mm 4 mps 750 mmHg 80%
18:00 +15°C° 0 mm 4 mps 751 mmHg 80%
19:00 +14°C° 0 mm 3 mps 751 mmHg 82%
20:00 +14°C° 0 mm 3 mps 751 mmHg 84%
21:00 +14°C° 0 mm 2 mps 751 mmHg 86%
22:00 +14°C° 0 mm 2 mps 752 mmHg 87%
23:00 +14°C° 0 mm 2 mps 752 mmHg 88%

16 July, Thursday

Time Temperature Precipitation Wind Pressure Humidity
00:00 +14°C° 0 mm 2 mps 752 mmHg 89%
01:00 +13°C° 0 mm 3 mps 752 mmHg 89%
02:00 +13°C° 0 mm 3 mps 752 mmHg 89%
03:00 +13°C° 0 mm 3 mps 752 mmHg 88%
04:00 +13°C° 0 mm 3 mps 752 mmHg 88%
05:00 +13°C° 0 mm 3 mps 752 mmHg 87%
06:00 +13°C° 0 mm 4 mps 752 mmHg 87%
07:00 +15°C° 0 mm 4 mps 753 mmHg 83%
08:00 +17°C° 0 mm 4 mps 753 mmHg 79%
09:00 +17°C° 0 mm 5 mps 753 mmHg 75%
10:00 +18°C° 0 mm 4 mps 753 mmHg 73%
11:00 +19°C° 0 mm 4 mps 753 mmHg 70%
12:00 +20°C° 0 mm 4 mps 754 mmHg 68%
13:00 +20°C° 0 mm 4 mps 753 mmHg 68%
14:00 +20°C° 0 mm 4 mps 753 mmHg 68%
15:00 +20°C° 0 mm 4 mps 753 mmHg 68%
16:00 +20°C° 0 mm 3 mps 753 mmHg 70%
17:00 +20°C° 0 mm 3 mps 753 mmHg 73%
18:00 +20°C° 0 mm 3 mps 753 mmHg 75%
19:00 +19°C° 0 mm 3 mps 754 mmHg 79%
20:00 +18°C° 0 mm 2 mps 754 mmHg 84%
21:00 +16°C° 0 mm 2 mps 754 mmHg 88%
22:00 +16°C° 0 mm 2 mps 754 mmHg 89%
23:00 +15°C° 0 mm 2 mps 754 mmHg 90%

17 July, Friday

Time Temperature Precipitation Wind Pressure Humidity
00:00 +15°C° 0 mm 2 mps 754 mmHg 91%
01:00 +14°C° 0 mm 2 mps 754 mmHg 92%
02:00 +14°C° 0 mm 2 mps 754 mmHg 93%
03:00 +14°C° 0 mm 1 mps 754 mmHg 94%
04:00 +15°C° 0 mm 1 mps 754 mmHg 92%
05:00 +15°C° 0 mm 1 mps 754 mmHg 91%
06:00 +16°C° 0 mm 1 mps 754 mmHg 90%
07:00 +18°C° 0 mm 1 mps 754 mmHg 84%
08:00 +20°C° 0 mm 1 mps 754 mmHg 78%
09:00 +22°C° 0 mm 1 mps 754 mmHg 73%
10:00 +21°C° 0 mm 2 mps 754 mmHg 69%
11:00 +23°C° 0 mm 2 mps 754 mmHg 65%
12:00 +24°C° 0 mm 2 mps 754 mmHg 61%
13:00 +24°C° 0 mm 2 mps 754 mmHg 60%
14:00 +25°C° 0 mm 2 mps 754 mmHg 60%
15:00 +25°C° 0 mm 2 mps 754 mmHg 59%
16:00 +25°C° 0 mm 2 mps 753 mmHg 62%
17:00 +24°C° 0 mm 2 mps 753 mmHg 65%
18:00 +24°C° 0 mm 2 mps 753 mmHg 68%
19:00 +21°C° 0 mm 2 mps 753 mmHg 73%
20:00 +21°C° 0 mm 1 mps 753 mmHg 78%
21:00 +19°C° 0 mm 1 mps 753 mmHg 83%
22:00 +18°C° 0 mm 1 mps 753 mmHg 84%
23:00 +18°C° 0 mm 1 mps 753 mmHg 86%

18 July, Saturday

Time Temperature Precipitation Wind Pressure Humidity
00:00 +15°C° 0 mm 0 mps 753 mmHg 88%
01:00 +16°C° 0 mm 1 mps 753 mmHg 89%
02:00 +15°C° 0 mm 1 mps 752 mmHg 90%
03:00 +15°C° 0 mm 1 mps 752 mmHg 91%
04:00 +15°C° 0 mm 1 mps 752 mmHg 90%
05:00 +16°C° 0 mm 2 mps 752 mmHg 89%
06:00 +16°C° 0 mm 2 mps 752 mmHg 89%
07:00 +17°C° 0 mm 2 mps 752 mmHg 83%
08:00 +18°C° 0 mm 3 mps 752 mmHg 77%
09:00 +19°C° 0 mm 4 mps 751 mmHg 71%
10:00 +20°C° 0 mm 4 mps 751 mmHg 70%
11:00 +20°C° 0 mm 4 mps 751 mmHg 69%
12:00 +21°C° 0 mm 4 mps 751 mmHg 68%
13:00 +21°C° 0 mm 4 mps 750 mmHg 68%
14:00 +21°C° 0 mm 5 mps 750 mmHg 68%
15:00 +22°C° 0 mm 5 mps 750 mmHg 68%
16:00 +21°C° 0.1 mm 4 mps 750 mmHg 71%
17:00 +20°C° 0.1 mm 4 mps 750 mmHg 74%
18:00 +20°C° 0.1 mm 4 mps 749 mmHg 77%
19:00 +19°C° 0 mm 3 mps 750 mmHg 80%
20:00 +18°C° 0 mm 3 mps 750 mmHg 83%
21:00 +17°C° 0 mm 2 mps 750 mmHg 86%
22:00 +16°C° 0 mm 2 mps 750 mmHg 87%
23:00 +16°C° 0 mm 2 mps 750 mmHg 87%
Show more